Race Results for
NMBS #4-Snowshoe
Snowshoe, WV
(Event Information)
This is a non-competitive event
Cross Country on 06/12/2004

Note: Ranking points are NOT upgrade points. An explanation of ranking points can be found here.


Men - Cat 1/2/3 - Senior

 Place NameCity, StateTime USAC #BibTeam
1JAY DICHARRY   2:08:02.06  1023 

Men - U23 - 1-23

 Place NameCity, StateTime USAC #BibTeam
1Eric Jellum   Indian Hills, CO2:57:27.85 192996  59 FORD/GIANT
2David Binker   Tucson, AZ3:09:56.81 166097  103 
DNFRYAN GRACEY   DNF  51 TEAM OLIVE
DNFANTHONY DELAUDER   DNF  104 BLACKWATER

Men - Pro - Senior

 Place NameCity, StateTime USAC #BibTeam
1GEOFF KABUSH   2:14:00.12  MAXXIS
2CHRIS SHEPPARD   2:15:44.98  HARO-ADIDA
3ADAM CRAIG   2:16:15.44  10 GIANT/PEAR
4TRAVIS BROWN   2:16:48.47  TREK/VOLKS
5RYAN TREBON   2:17:45.67  36 KONA/CLARK
6PAUL ROWNEY   2:20:00.83  45 YETI
7CHRIS EATOUGH   2:20:49.63  85 TREK/VW
8CARL SWENSON   2:25:04.06  RLX RALPH
9NICK WAITE   2:25:07.47  15 U23 NATION
10Eric Jones   Salt Lake City, UT2:26:22.51 18172  14 BIOGEN-IDE
11BRANDON OTT   2:28:28.05  93 TAILWIND
12BARRY WICKS   2:29:05.46  20 KONA-CLARK
13NICK RANNO   2:30:53.15  88 TREK ROCKY
14MARK WEIR   2:31:40.69  90 WTBSANTACR
15Alan Obye   Boulder, CO2:32:42.84 117394  19 U23 NATION
16John Foley   Fiskdale, MA2:33:24.74 121026  70 BIKE ALLEY
17SAM SCHULTZ   2:34:01.30  64 U23 NATION
18BART GILLESPIE   2:34:34.35  67 BIOGEN-IDE
19CHARLES PENDRY   2:34:41.47  41 BTD RACING
20THOMAS TURNER   2:35:30.75  52 CANNONDALE
21BRIAN MATTER   2:36:02.82  53 PCWCYCLING
22ANDREAS HESTLER   2:36:26.61  28 ROCKY MTN/
23DANIEL DOUB   2:36:55.75  69 BTD RACING
24BRENT MILLER   2:37:37.39  24 INTENSE
25ARIEL LINDSLEY   2:39:26.85  86 MAVERICK/K
26JASON SAGER   2:39:39.35  98 HOTEL SAN
27TRISTAN SCHOUTEN   2:40:32.99  56 PCW CYCLIN
28DIEGO GARAVITO   2:40:34.13  101 
29Derek Prechtl   Empire, MI2:41:02.24 28635  71 BELLS BEER
30BRYAN FAWLEY   2:41:22.86  78 TEAM WV BO
31ADAM SNYDER   2:43:14.45  94 TEAM DEVO
32JEREMIAH BISHOP   2:43:15.72  TREK/VW
33CHARLES STORM   2:43:29.95  22 BTD RACING
34MICHAEL PATRICK   2:44:19.39  54 GARY FISHE
35RAITA SUZUKI   2:45:58.54  55 BRIDGESTON
36AMON PEASE   2:46:06.41  57 INTENSE
37NAT ROSS   2:46:48.72  83 SUBARU- GA
38JEFF SHIREY   2:47:13.60  73 SUNSHINE/P
39KEIICHI TSUJIURA   2:48:04.83  87 
40MILTON MIRANDA   2:48:17.78  89 
41BRENT BOOKWALTER   2:48:20.50  102 BALANCE BA
42JESSE RIENTS   2:50:30.22  72 NATURE VAL
43DAVID TIMMONS   2:51:16.32  82 RPM/YETI
44DANIEL CORUM   2:54:26.30  106 JUST FRESH
45TROY WELLS   2:54:52.07  81 SPECIALIZE
46DEREK WILKERSON   2:54:52.85  80 SPECIALIZE
47Steven Carwile   Owings Mills, MD2:55:04.46 149268  63 LINDSEY WI
48Nathan Phillips   San Antonio, TX3:00:51.17 28064  61 SOLAR ECLI
49BILLY HOLMES   3:01:53.42  58 INTENSE CY
50CHRISTOPHER PHILLIPS   3:13:37.46  96 BALANCE BA
DNFJOREL HENDERSHOT   DNF  79 CANNONDALE
DNFKRIS SNEDDON   DNF  117 KONA/C
DNFRAUL BELLO   DNF  100 THE CYCLIS
DNFCESAR GRAJALES   DNF  99 MAXXIS
DNFETHAN JOHNSON   DNF  97 BALANCE BA
DNFNATHAN RINGQUIST   DNF  95 TM DRIED P
DNFANTHONY SLOWINSKI   DNF  92 SCHELLERS-
DNFJOEY THOMPSON   DNF  74 BALANCE BA
DNFTRENT LOWE   DNF  66 YETI
DNFJOHN DEVINE   DNF  65 U23 MATION
DNFANDREW FREYE   DNF  62 OAKLEY
DNFROB SCOTT   DNF  60 CANNONDALE
DNFPERREN DELACOUR   DNF  35 YETI/ RPM
DNFSEAMUS MCGRATH   DNF  HARO-ADIDA
DNFDOUG SWANSON   DNF  31 TREK/VW

Men - SM - Senior

 Place NameCity, StateTime USAC #BibTeam
1Timothy Platt   2:27:33.19 180575  236 BLUESTONE
2David Duvall   Baltimore, MD2:29:10.45 10300  240 TREK/VW E
3Todd Helmick   Newport News, VA2:32:15.94 181000  780 TREK VW EA
4Nick Martin   Boulder, CO2:34:50.15 140177  238 TREK-VW
5Chris Kuhl   Dillsburg, PA2:35:32.37 175354  202 BUSHEYS CY
6Eric Kriberney   Butler, PA2:35:36.52 207097  226 WWW.SPEEDG
7Jarett Sweeney   Nesquehoning, PA2:37:25.62 169675  229 SHIRKS
8Andrew Mills   Orlando, FL2:37:42.95 159112  214 TREK/VW/JB
9Tim Olson   Chico, CA2:37:49.71 153947  239 TREK/VW
10Patrick Wallace   Ellicottville, NY2:39:44.71 80674  207 MUD SWEAT
11Robert Cotton   Ann Arbor, MI2:40:45.08 190324  211 STRUCTURAL
12William Jason Laxton   Boone, NC2:41:05.28 164077  230 BOONE BIKE
13Terry Walls   Baltimore, MD2:41:46.68 178430  203 CANNONDALE
14Justin Becker   Loveland, OH2:42:50.35 107839  237 BIOWHEELS/
15Theodore D'Onofrio   East Hartland, CT2:44:03.67 82935  234 BENIDORM/C
16Michael Raney   Santa Fe, NM2:44:49.40 175669  225 BLUESTONE
17Jed Schober   Lititz, PA2:45:35.95 137636  222 GRETNA BIK
18Jerry (Jay) Charles   Blythewood, SC2:47:09.97 110326  216 CYCLE CENT
19Lucas Brusseau   Denton, TX2:48:16.48 5255  210 WHEELS IN
20Colin Izzard   Brevard, NC2:51:08.92 17483  221 ABERDEEN R
21Mike Koenig   Boulder, CO2:52:02.87 120199  204 TOKYO JOES
22Todd Reighley   Blacksburg, VA2:52:48.25 87974  213 EL TOREOKO
23Ross Bowden   Durham, NC2:53:46.53 181996  242 
24Daniel Evans   Sissonville, WV2:57:36.75 183928  231 TEAM WV BO
25Ross Scatchard   Charlotte, VT3:00:17.35 150904  228 BLISS RACI
26Lucas Livermon   Carrboro, NC3:01:36.87 161552  215 CAT/ ROSWE
27Kevin Hall   Bellingham, WA3:15:54.82 173510  232 BTD RACING
28Craig Wohlschlaeger   Montecito , CA3:21:32.42 121452  201 DENT WIZAR
DNFJosh Clark   Scio, OHDNF 101874  209 
DNFEdward Burress   Arden, NCDNF 146920  241 CANE CREEK
DNFKeith Hargis   Dallas, TXDNF 125961  235 TREK/RICHA
DNFTane Hunter   Las Cruces, NMDNF 130676  233 UNM LOBOS
DNFERIC PIRTLE   DNF  227 DOGFISH AP
DNFTravis Woodruff   Prescott, AZDNF 135975  224 PCW CYCLIN
DNFJohn Rowley   Pittsburgh, PADNF 175925  212 PCW CYCLIN
DNFTroy Michaud   York, MEDNF 92465  208 TREK NEW E
DNFGreg Frozley   Colorado Springs, CODNF 12490  206 CODYPRO CY
DNFCharles Knoll   DenverDNF 19476  205 NO-HAIR.CO
DNFBrian Schworm   Morehead, KYDNF 104934  223 PEDAL POWE

Men - EX - Junior - 1-18

 Place NameCity, StateTime USAC #BibTeam
1Alex Hodge   Bend, OR2:42:13.15 168820  951 DEVO/BALAN
2Noah Singer   Little Rock, AR2:42:13.49 171313  596 DOUBLEBEES
3Christopher Ziegler   Detroit Lakes Mn2:46:06.43 199197  531 MAPLELAG/B
4Garrett Gibson   San Francisco, CA2:46:25.14 144160  412 TEAM DEVO
5Dustin Greer   Cedar Hill, TN2:49:14.81 178240  636 SYMED MOAB
6Dan Wilson   Fenelton, PA2:49:45.75 176279  961 BLUESTONE
7Kyle Hammaker   Marysville, PA2:51:18.04 194193  939 KUHN COACH
8Adam Kovaly   Banner Elk, NC2:52:56.76 207358  688 
9Evan Piche   Holyoke, MA2:53:07.81 194481  540 
10David Scherp   East Hampton, CT2:53:14.47 182798  538 BIKERS EDG
11Travis Livermon   Lewisville, NC2:54:36.05 161583  621 EC VELO
12Dan Hock   Northfield, VT2:56:50.92 194849  632 
13Tristan Uhl   Austin, TX2:57:08.46 168160  682 RITCHEY NO
14Mitchell Peterson   Salt Lake City, UT3:00:37.11 192669  438 BALANCE BA
15Jerome Townsend   Princeton, MA3:01:15.46 196503  681 COYOTE HIL
16Gregory Carpenter   Durango, CO3:02:18.03 191158  419 CANNONDALE
17Nick Certeza   Eagle, CO3:03:28.10 191248  651 CENTURYTEL
18Thomas DiNunzio   Andover, NJ3:03:58.60 212722  643 TEAM BULLD
19Eric Jackson   Greensboro, NC3:05:00.68 192279  545 CYCLE DEOR
20Paul Davis   Midvale, UT3:07:08.00 196139  875 
21Aaron Snyder   State College, PA3:07:46.92 204182  979 TAILWIND
22Alex Ryan   Lewisville, NC3:09:10.24 173542  576 PACELINE B
23Travis Mann-Gow   Fairfax, VT3:10:56.27 200765  840 BLISS RACI
24Joseph Adams   Montgomery, VT3:12:01.17 144449  876 BLISS RACI
25Chris Hinshaw   Winter Haven, FL3:13:20.57 176950  665 ABERDEEN R
26John Purvis   Parthenon, AR3:14:02.99 200977  726 BUSHMEN
27Ismael Cid   Weehawken, NJ3:15:50.37 187813  898 TREADBIKES
28Eric Desautels   Greenville, NH3:16:33.21 160536  558 JAMIS/AMER
29Nick Agate   Albany, CA3:24:53.01 180146  649 TM NSO
30Andrew Fetty   Spencer, WV3:25:45.53 206827  562 BON JOVI W
31Aaron Sniker   York, SC3:26:15.02 197086  677 JUST-FRESH
32Ryan Sickles   Barbourville, KY3:35:26.60 179875  536 
33Breton Fischetti   Pittsburgh, PA3:38:21.21 203572  413 DEAN BICYC
34Shane Smith   Austin, TX3:51:04.14 202487  597 UNITED YOU
35Mike Forney   Pittsburgh, PA3:59:16.00 214191  942 
DNFAustin Carroll   Orange, CADNF 192670  513 DEVO BALAN
DNFRyan Buerman   Pinckney, MIDNF 193513  966 YOUTH CYCL
DNFBRENDAN BENSON   DNF  965 YOUTHCYCLI
DNFBEN RENKEMA   DNF  964 MICHIGAN Y
DNFTyler Jewell   Austin, TXDNF 168914  892 UYS/SAN JO
DNFBlake Harlan   Austin, TXDNF 175637  891 UYS/SAN JO
DNFKoyle Olsen   Fayetteville, ARDNF 192275  725 BUSHMEN
DNFBen Pifer   Kingwood, TXDNF 175635  609 UNITED YOU
DNFMatthew Skeen   Summerfield, NCDNF 173539  535 CYCLES DE
DNFColt McElwaine   Canton, MADNF 205236  497 NEBC/CYCLE
DNFRand Shoaf   Bend, ORDNF 193872  967 DEVO-BALAN
DNFWilliam Brown   Oro Valley, AZDNF 194984  569 DEVO/BALAN
DNFColby Jessett   Shelburne, VTDNF 148158  882 BLISS RACI

Men - EX - Senior - 19-24

 Place NameCity, StateTime USAC #BibTeam
1Justin Lindine   North Ogden, UT1:47:54.79 205717  624 WINDHAM MT
2Rob Rohel   Wantage, NJ1:49:51.43 136206  1072 ACTION OUT
3WES SWEFFAR   1:53:30.57  1144 PALISADES
4German Bermudez   Colombia1:55:42.78 194439  977 SCHELLERS-
5Rick Wetherald   Logan, UT1:55:59.99 188971  527 FORT LEWIS
6Brandon Draugelis   Shippensburg, PA1:56:56.14 179397  469 CANNONDALE
7Luke Rozanski   Black Mountain, NC1:58:23.86 186103  717 SMITH SPOR
8Chad Wells   Petoskey, MI1:58:29.59 194504  599 NORTH COUN
9Brian Martina   Boulder, CO2:00:14.34 161969  1143 
10Justin Raynes   Bozeman, MT2:00:46.38 197456  489 P-TOWNE RA
11Will Hoffarth   Charlotte, NC2:03:11.84 197022  630 JUST FRESH
12David Lyons   Branchville, NJ2:03:27.40 212759  1039 ACTION OUT
13Jordan Kahlenberg   Morrisville Pa2:03:55.60 152298  1000 GRETNA BIK
14GREG WITTWER   2:05:00.29  1097 CHAR RACIG
15Jimmy Lawrence   Windham, NY2:05:50.29 193233  1059 WINDHAM MT
16Ben Richardson   Perryville, KY2:08:33.11 176926  999 LINDSEY WI
17PETE HALL   2:08:43.90  963 YOUTHCYCLI
18Everett Garcia   Crested Butte, CO2:11:31.89 194250  949 BICYCLE HE
19Daniel Rotroff   Lewisville, NC2:16:23.63 180713  484 NC STATE U
20Michael Thomas   Randleman, NC2:17:32.24 187985  954 CYCLES DE
21David Wood   Hendersonville, NC2:18:45.85 205937  922 BIKE DOCTO
22Beau Gehret   Reading, PA2:54:33.60 130231  863 
DNFWILL CRAGG   DNF  1105 SPECIALIZE
DNFSam Silvey   Chattanooga, TNDNF 180012  957 SUCK CREEK
DNFAnthony Kahn   Arcata, CADNF 143262  628 REVOLUTION
DNFAndrew Speece   Coxsackie, NYDNF 184926  1060 WINDHAM MT
DNFBrett Hixson   Houston, PADNF 121489  1022 SPEEDGOAT.

Men - EX - Senior - 25-29

 Place NameCity, StateTime USAC #BibTeam
1Shawn Altizer   Cedar Bluff, VA1:46:40.52 189356  912 ADVENTURES
2Cashion Smith   Carbondale, CO1:48:22.89 190144  1067 SASHAS
3Joey Riddle   Elkins, WV1:49:32.25 181299  674 TEAM WV BO
4Jacob McGahey   Asheville, NC1:51:09.10 108366  617 
5Kevin Mullins   Maiden, NC1:51:21.10 184011  910 
6Jason Hilimire   Lafayette, CO1:52:14.16 165165  629 GENEVA SPI
7Ross Clark   Hudson, OH1:52:20.77 211726  556 OHIO BIKES
8Mario Medina   Sussex, WI1:56:06.16 181488  710 MTB CINCY
9Neil Swanson   Colorado Springs, CO1:57:43.12 209153  960 MICHAELS C
10Jonthan Gantz   New Freedom, PA1:58:30.14 102051  509 GUNG HO BI
11ARON YEVUTA   1:58:36.33  1142 BARISTAS
12Nicholas Kindt   Greenville, SC2:01:32.34 209840  548 GUSTO CYCL
13ADAM WEIFORD   2:02:16.83  1062 
14Bernie Grysen   Grandville, MI2:03:13.60 190244  1131 ALGER RACI
15Wesley Dickson   Brevard, NC2:07:12.56 9461  1040 SYCAMORE C
16Troy Romanowski   Stamford, CT2:07:35.92 181067  487 NORTHEAST
17Christopher Filipiak   Asheville, NC2:12:45.92 176053  511 WHEELS IN
18Kelly Orr   Arlington, TX2:16:02.39 177980  941 SUN N SKI/
19Eric Welp   Hyattsville, MD2:29:45.48 210966  975 
DNFRobert May   Schwenksville, PADNF 197667  709 TAILWIND

Men - EX - Master - 30-34

 Place NameCity, StateTime USAC #BibTeam
1David Wilson   El Paso, TX1:46:32.23 38515  602 
2Joseph Stone   Dunbar, WV1:47:45.11 188650  1084 SPIMPORTS
3Nigel Hill   Mckinleyville, CA1:51:16.45 185136  1069 AMGENCYCLI
4JASON CYR   1:53:57.38  1096 DIRTY HARR
5BRADLY KRILEY   1:54:45.63  913 SPEEDGOAT.
6Foye Troute   Hixson, TN1:55:39.34 35970  869 SHIMANO
7Michael Sherlock   Staten Island, NY2:00:41.65 174415  721 BENNETT'S
8Shannon Orr   Tucson, AZ2:02:24.68 202322  969 SUN N SKI
9Greg Waggoner   New York, NY2:02:47.85 171792  1053 
10James Almgren   Lexington, KY2:04:04.40 78991  1125 
11Jon Tanklage   Whittier, CA2:06:22.09 185516  478 TEAM KAREE
12Jeff Welp   Lilburn, GA2:08:44.94 164467  572 COMPETATIV
13Jim Molnar   Cary, NC2:10:19.64 186949  614 CYCLING SP
14JOHN SVAHN   2:10:26.40  1061 
15Michael Lober   Cincinnati, OH2:11:03.70 114158  578 OAKLEY CYC
16Gregg Ford   Baltimore, MD2:12:32.53 94441  1092 FLEET STRE
17ROBERT SCHAEFFER   2:12:48.32  936 SHIRKS
18Michael Cunningham   Windsor Mill, MD2:13:28.54 95582  1037 BIKE DOCTO
19Robert George   Raleigh, NC2:15:34.99 13050  555 CYCLING SP
20Peter Pelychaty   Rochester, NY2:17:34.25 211238  458 
21Hugh Smallwood   Pontiac, MI2:21:50.13 186135  675 TEAM BBC
22Daniel Kinnee   Orlando, FL2:26:22.33 185447  746 KINNEE RAC
DNFBrad Dobbins   High Point, NCDNF 182408  639 TEAM SPINZ
DNFAlvin Thomas   Greensboro, NCDNF 180595  1036 TEAM SPINZ
DNFScott Chambers   Grand Rapids, MIDNF 200261  752 ALGER RACI
DNFJ J McDowell   Trinity, NCDNF 147076  460 TEAM SPINZ
DNFMark Nicoll   Indiana, PADNF 75606  1132 ESSM/GPOA

Men - EX - Master - 35-39

 Place NameCity, StateTime USAC #BibTeam
1Anthony Cipolla   Morris, CT1:49:58.94 139115  931 FIORD FUIT
2Gerald Pflug   Connellsville, PA1:56:43.50 27999  457 SCI-FIT/DI
3Michael Buchness   Reston, VA1:57:12.94 5322  422 BIKE DOCTO
4Brian Rutter   Belchertown, MA1:57:48.44 168738  1020 TEAM BERLI
5Benjamin Moore   Bloomfield, CT1:58:51.81 159697  442 TEAM BERLI
6David McComb   Yoder, IN2:01:05.68 172316  445 TEAM KOEHL
7Zdenek Fiebinger   Franklin2:02:00.39 183301  1055 OUTSPOKIN/
8Tom McDonnell   Sugar Grove, NC2:02:20.93 150598  948 BOONE BIKE
9Bill Crank   Lexington, KY2:02:27.27 8075  1123 
10Gavin Gonzalez   Englewood, CO2:03:27.21 169867  1054 BIO WHEELS
11Brian Hackathorne   North Charleston, SC2:06:51.49 177246  1140 HARRELS BI
12Esteban Rodriguez   Woodside, NY2:07:46.73 153034  903 SID'S BIKE
13Ken Jefferson   Newport News, VA2:08:34.23 17722  1136 SUNSHINE
14Ronald Sawicki   Irvine, CA2:09:58.29 208699  739 WARRIORS S
15Brian Beattie   Asheville, NC2:14:01.00 181563  1094 BIO-WHEELS
16Robert Dudas   Hunt Valley, MD2:14:32.07 213741  1134 CHAKRA CYC
17LEE MILLER   2:17:43.15  493 LAUREL HIG
18John Meyerle   Monroe, CT2:19:34.05 174385  712 TITUS CYCL
19Chris Anderson   Westport, CT2:38:06.78 172505  565 CANNONDALE
20JAMES SHERIDAN   2:49:24.25  776 
DNFDavid Ciminelli   Glen Allen, VADNF 41482  416 
DNFBO HAMLETT   DNF  1098 SPEEDGOAT
DNFRob Moran   Cary, NCDNF 89780  619 BTD/FUJI

Men - EX - Master - 40-44

 Place NameCity, StateTime USAC #BibTeam
1Stephen Thaxton   Sissonville, WV1:51:57.44 35278  679 TEAM WV BO
2Andrew Holdsworth   San Francisco, CA1:57:17.12 145565  553 THIRSTYBEA
3JONNY LOVE   1:58:56.64  1090 
4Ron Huebner   Waterford, VA2:05:24.11 145895  920 POTOMAC VE
5John Myers   East Point, GA2:05:59.69 164658  1083 VELO VODOO
6Roger Masse   Bethesda, MD2:07:07.93 22842  461 ALL AMERIC
7JEFFREY AUGUSTINE   2:07:19.21  566 OHIO BIKES
8Dowain Ford   Aurora, WV2:07:44.69 214473  510 DEAN BICYC
9Charlie (Jimmy) Bruner   Cary, NC2:09:12.33 151753  692 BTD RACING
10Neal Huffman   Gainesville, VA2:11:44.81 169720  408 THE BIKE S
11Billy Byerly   Thomasville, NC2:14:52.46 149374  516 TEAM SPINZ
12TOM GRASL   2:21:33.52  466 
13Marco Hellman   San Francisco, CA2:23:25.51 123885  1018 G6
14Cory Nash   San Jose, CA2:37:02.82 92324  495 SYCIP RACI
15Eric Sloman   Ashburn, VA2:46:27.38 123134  533 NCVC
DNFJames Wilbur   Glen Rock, NJDNF 38201  447 RVCC
DNFJay Smith   Charlotte, NCDNF 180625  676 JUST FRESH

Men - EX - Master - 45-49

 Place NameCity, StateTime USAC #BibTeam
1Keith Sanders   Winter Park, CO1:51:31.46 31223  483 GRAND SPOR
2Robert Koerber   Asheville, NC1:57:37.53 97472  623 CANE CREEK
3William Gentile   Lebanon, PA2:09:43.41 13043  660 GRETNA BIK
4Pete Masiel   Silver City, NM2:17:01.41 174198  757 IE BIKES/S
5Richard Watts   Charleston, WV2:20:23.82 172634  1046 RIDGE RIDE
DNFPaul Hardy   Fairfax, VADNF 129770  411 INDEPENDEN
DNFArthur White   Hohokus, NJDNF 37936  448 RVCC/TREK
DNFRobert Anderson   Mill Valley, CADNF 1688  401 NOVADIGM/F

Men - EX - Master - 50-54

 Place NameCity, StateTime USAC #BibTeam
1Scott Root   Pittsburgh, PA0:56:00.05 79187  1085 BLUESTONE
2Timothy Messersmith   York, PA1:00:28.01 128500  668 FIRST CAPI
3Raymond Wilson   Little Rock, AR1:01:30.14 38574  683 ORBEA
4Paul Zarubin   Truckee, CA1:03:23.49 196952  475 MT LINCOLN
5Eddie Greene   Boone, NC1:03:29.91 86788  968 BOONE VELO
6Fred Wittwer   Charlottesvle, VA1:06:00.35 38738  528 CHARLOTTES
7Michael Bonkowski   San Francisco, CA1:09:21.62 167358  976 BERKELEY B
8Luther Livermon   Cary, NC1:09:41.52 186676  625 EC VELO
9John Barmettler   San Jose, CA1:14:05.00 2610  520 SYCIP

Men - EX - Master - 55-59

 Place NameCity, StateTime USAC #BibTeam
1Rick Sederberg   Batesville, AR1:05:23.91 171312  574 PARKSIDE/S
2James Carlson   Springfield, VA1:15:34.83 96832  694 PVC
3John Warfel   Millersville, PA1:16:03.73 145457  451 SHIRKS BIK
4George Delgado   Ellicott City, MD1:16:36.64 9119  1093 TREK
5David McElwaine   Canton, MA1:19:59.70 97574  496 NEBC/CYCLE
6Kenneth Lutz   Haskell, NJ1:34:00.62 86707  985 RVCC
DNFRobert Blatner   Brentwood, CADNF 128181  645 BIKES4LIFE
DNFDonald Snoop   Middleburgh, NYDNF 104325  435 

Men - EX - Master - 60-64

 Place NameCity, StateTime USAC #BibTeam
1Charles Fleming   Rochester Hls, MI1:10:03.30 11808  551 OLD JOE RA
2Charles Goodrich   Southport, NC1:19:22.36 182799  889 

Men - EX - Master - 65-99

 Place NameCity, StateTime USAC #BibTeam
1Jerald Bliton   Beaver Falls, PA1:39:18.92 3956  426 TEAM TRI/K
2Stan Morgan   Midlothian, VA1:42:55.43 143159  672 3 SPORTS

Men - SP - Junior - 1-18

 Place NameCity, StateTime USAC #BibTeam
1Bennett Brown   Houston, TX2:00:54.84 187726  646 RITCHEY NO
2John Benoit   Gastonia, NC2:02:24.02 180642  881 TEAM EDGE
3ALEX COX   2:04:52.82  654 INDIANA CY
4David Bishop   Signal Mountain, TN2:05:30.80 194664  984 SUCK CREEK
5DAVID GARCIA   2:17:39.92  971 
6J.J. FORD   2:22:23.15  635 FAT TIRE C
7Patrick Isennock   Perry Hall, MD2:39:34.60 209360  1007 BLACK HAT
8Reid Curry   Shaker Heights, OH2:40:26.05 187460  1078 PISTA ELIT

Men - SP - Senior - 19-24

 Place NameCity, StateTime USAC #BibTeam
1STUART HELLEBUSCH   1:58:43.18  637 PEDAL POWE
2Tim Koerber   Brevard, NC2:06:36.06 161660  826 
DNFKENNETH DIMARZIO   DNF  1003 SHIRKS BIK

Men - SP - Senior - 25-29

 Place NameCity, StateTime USAC #BibTeam
1BENJAMIN KUHLMAN   1:58:09.06  1068 VIENNABIKE
2Jerrad Cooper   Flagstaff, AZ2:01:22.91 140267  696 SOBE CANNO
3Todd Rennie   Charleston, WV2:02:12.13 210122  673 DIRTBEAN.C
4Sean Crichton   Jacksonville Beach, FL2:04:48.48 194445  1064 BICYCLES E
5ERIC FONVILLE   2:06:50.87  1139 ROCKY MTN
6OWEN SIMPSON   2:17:04.85  1095 HARDTAIL
7DON STEWARD   2:29:36.48  453 TRAILWIND

Men - SP - Master - 30-34

 Place NameCity, StateTime USAC #BibTeam
1BRIAN HESS   1:55:04.64  1004 SHIRKS
2BRADLEY JEFFERSON   1:59:50.17  626 GNC
3DAVE STAUFFER   2:02:38.97  1038 CYCLEWORKS
4JOEL HOERNI   2:03:05.59  1047 
5Anthony Janik   Jacksonville, FL2:08:21.21 194446  464 BICYCLES E
6Michael Hadley   Bristol, CT2:10:01.82 98394  634 BIKERS EDG
7MARK STEPHENSON   2:11:37.29  433 CHARLOTTES
8BRIAN SCHMIDT   2:13:34.78  1026 
9Pete Johnson   Jacksonville, FL2:29:16.46 194829  1065 BICYCLES E
DNFBRENT MILLER   DNF  24 INTENSE/KE
DNFBRYAN STRZELEC   DNF  872 

Men - SP - Master - 35-39

 Place NameCity, StateTime USAC #BibTeam
1Barry Goldenberg   Waxhaw, NC2:08:52.85 161576  470 JEST FRESH
2Wade Newell   Freehold, NJ2:12:11.59 197953  439 
3Carl Arneson   Pittsboro, NC2:15:37.63 181011  1035 CYCLING SP
4STEVE SVOBODA   2:15:52.50  978 STC
5Joe McConkey   Oswego Ny2:41:55.51 133712  1025 JUST FRESH
6Phillip Esempio   Nazareth, PA2:58:49.17 139599  644 SUMMIT FRE
7JOSEPH SHAW   3:01:44.89  795 
DNFDoug Nelson   Indian Trail, NCDNF 205333  492 ULTIMATE B
DNFDavid Clodfelter   Winston Salem, NCDNF 160748  907 TEAM SPINZ

Men - SP - Master - 40-49

 Place NameCity, StateTime USAC #BibTeam
1DAN RICHARD   2:05:30.07  1135 
2Robert Letson   Broomfield, CO2:08:54.41 178769  1030 
3DAVID ALLEN   2:10:49.30  995 CONTES-EAS
4Matthew Carpenter   Canton, CT2:11:14.63 6213  418 TEAM EDGE
5Alex Hawkins   Chapel Hill, NC2:13:24.49 15474  409 
6Charles Patterson   Pittsburgh, PA2:14:27.79 190871  611 PATTERSON
7WES STAFFORD   2:15:48.96  797 TEAM WV/BO
8JOEL MOATS   2:17:04.72  618 MBM/GETTYS
9Matthew Scherp   E Hampton, CT2:17:33.97 202068  883 TEAM EDGE
10RONNIE MYERS   2:17:34.44  798 WHITES BIK
11Edward Rosipayla   Spencerport, NY2:17:36.86 178141  607 SUGARS BIK
12ALAN WARE   2:25:57.56  894 
13Gerald Oleksak   Westfield, MA2:39:17.11 154663  997 
14RON BADAR   2:56:54.52  567 
DNFDANNY HILL   DNF  664 
DNFMARK BOSLEY   DNF  772 LITTLE VIN
DNFSTEVEN KAPLAN   DNF  669 BIKE JUNKI
DNFRick Hoffarth   Harrisburg, NCDNF 207213  633 JUST FRESH
DNFSamuel Satterwhite   Waxhaw, NCDNF 180653  608 JUST FRESH
DNFDAVID JOHNDROW   DNF  405 
DNFSTEPHEN CARBONI   DNF  693 

Men - SP - Master - 50-99

 Place NameCity, StateTime USAC #BibTeam
1DARRALL HUBER   2:20:03.88  504 LAUREL HIG
2LARRY DELL   2:52:14.24  1133 
3Dirk Smithisler   Willoughby, OH2:59:18.01 121652  1056 
4BRUCE COX   3:05:17.21  653 INDIANA CY
DNFDon (Gil) Goodrich   Three Rivers, CADNF 13682  508 

Men - BG - Junior - 1-10

 Place NameCity, StateTime USAC #BibTeam
1Cody Hawkins   Chapel Hill, NC0:09:31.07 197558  953 
2MATHEW DUTCZAK   0:11:25.71  1130 

Men - BG - Junior - 11-12

 Place NameCity, StateTime USAC #BibTeam
1Cai Clothier   Millstone, WV0:07:15.15 209853  641 TEAM BON J
2Richard (Grant) Price   Martinsville, VA0:08:17.55 200534  1087 CYCLES DE
3ANDREW WIMBISH   0:09:11.36  1088 CYCLES DE
DNFMICHAEL DUTCZAK   DNF  1127 TREK/MAXXI
DNFAce Savarese   Royal Palm Beach, FLDNF 190536  904 

Men - BG - Junior - 13-14

 Place NameCity, StateTime USAC #BibTeam
1Matthew Keiper   Warrenton, VA1:00:17.49 156519  580 WASHINGTON
2Sam Teasdale   Williston, VT1:12:56.03 206383  815 BLISS RACI
3Justin Jenny   Williston, VT1:14:21.37 192879  846 BLISS RACI
4LUKE FATORA   1:15:11.13  659 
5Wes Satterwhite   Waxhaw, NC1:18:22.37 200672  606 JUST FRESH
6MICHAEL DUTCZAK   1:26:15.79  1128 TREK/MAXXI
7MAX LITTLEFIELD   1:26:45.52  921 
8DAMON HUBER   1:30:00.92  503 LAUREL HIG
9JOSHUA CURRY   1:33:35.89  1079 PISTA ELIT
10IAN HOLTZWORTH   1:41:38.13  730 

Men - BG - Junior - 15-16

 Place NameCity, StateTime USAC #BibTeam
1Zachary Israel   Greensboro, NC0:55:43.37 181994  667 CYCLES DEO
2MATTHEW ROTROFF   0:58:07.46  486 JUST FRESH
3Jonathan Keiper   Warrenton, VA1:01:12.43 156521  581 WASH BIKE
4Derrick Deming   S Burlington, VT1:08:06.30 190500  812 BLISS RACI
5JACOB ALLEY   1:19:08.02  946 
6SPENCER COATES   1:21:22.61  652 JUST FRESH

Men - BG - Junior - 17-18

 Place NameCity, StateTime USAC #BibTeam
1Nicholas Reiter   Philipsburg, PA1:08:00.05 212557  488 

Men - BG - Senior - 19-24

 Place NameCity, StateTime USAC #BibTeam
1Colin Watkins   Brevard, NC1:01:34.19 209776  980 SYCAMORE S
3JEFFREY BARLOW   1:38:34.54  1077 

Men - BG - Senior - 25-29

 Place NameCity, StateTime USAC #BibTeam
1JERICHO ESTELLA   1:28:43.70  512 

Men - BG - Master - 30-34

 Place NameCity, StateTime USAC #BibTeam
1SCOTT MCCLUNEY   1:35:38.27  671 

Men - BG - Master - 35-39

 Place NameCity, StateTime USAC #BibTeam
1YASUNORI TAKECHI   1:28:23.74  432 QUEST/NISS
2Edward Dutczak   Crete, IL1:28:33.01 80789  1129 CALUMITCIT
DNFJOSEPH SVOBODA   DNF  909 

Men - BG - Master - 40-49

 Place NameCity, StateTime USAC #BibTeam
1Mark French   Louisville, KY1:05:10.16 128970  989 LOUISEVILL
2MARTY THACKER   1:11:24.24  974 
3JOHN MOODY   1:17:01.93  443 
4Andrew Combs   Muncie, IN1:17:38.26 200119  1074 
5STEVE ROGERSON   1:30:32.63  1091 RLX
6Harry Gill   Harrisburg, PA1:36:29.78 209464  970 TEAM HARRI
7JEFFREY KOCH   1:45:15.66  1013 TEAM CMI
8SCOTT TAYLOR   1:52:46.91  1076 
DNFMack Lyons   Shawboro, NCDNF 21951  670 CYCLE GALL
DNFMarty Thacker   Leborn, KYDNF 174003  924 

Men - BG - Master - 50-99

 Place NameCity, StateTime USAC #BibTeam
1BILL COMBS   1:26:11.78  1075 
2GERARD KAMM   1:41:29.90  893 
3MICHAEL ISENNOCK   2:09:18.40  1006 

Women - U23 - 1-23

 Place NameCity, StateTime USAC #BibTeam
1Caitlyn Tuel   Golden, CO2:04:01.47 168652  39 TREK EAST

Women - Pro - Senior

 Place NameCity, StateTime USAC #BibTeam
1ALISON DUNLAP   1:47:05.16  36 LUNA WOMEN
2SHONNY VANLANDINGHAM   1:47:19.33  17 LUNA WOMEN
3KATERINA HANUSOVA   1:49:57.72  LUNA WOMEN
4KELLI EMMETT   1:50:13.43  13 SPECIALIZE
5DARA MARKS-MARINO   1:52:17.59  FORD CYCLI
6WILLOW KOERBER   1:54:05.44  RLX RALPH
7JIMENA FLORIT   1:56:20.61  RLX RALPH
8KERRY BARNHOLT   1:56:28.67  44 SUBARU-GAR
9JENNIFER SMITH   1:57:29.52  15 WV BONJOVI
10GRETCHEN REEVES   1:58:09.30  18 ROCKY MTN
11HEATHER IRMIGER   2:01:30.89  21 TOKYO JOES
12Katherine Sherwin   Heber City, UT2:02:45.38 173633  29 CANNONDALE
13LEA DAVISON   2:05:06.20  46 TEAM DEVO/
14Tonya Laffey   Altadena, CA2:06:02.03 121249  26 MTBCHICK.C
15Nina Baum   Albuquerque, NM2:06:36.08 180986  24 TITUS
16ERIN WINTER   2:06:50.98  55 ORBEA/COPP
17SARA BRESNICK   2:07:33.51  23 MINUTEMAN
18SHARI HAUSBECK   2:07:42.89  63 ROCK SHOX/
19KRISTY MANTZ   2:08:21.86  41 TITAN DIRT
20NIKI GUDEX   2:09:23.24  57 INTENSE CY
21ABIGAIL HIPPELY   2:10:22.93  56 KLEIN MAVE
22DARCY CORNELL- FOLEY   2:10:47.97  50 DANSKO WHE
23Theresa Richardson   Davidsonville, MD2:10:54.43 170227  32 CANNONDALE
24ANNEMARIE HUISMAN   2:11:09.95  34 CANNONDALE
25JENNIFER WILSON   2:11:21.81  47 
26SABRA DAVISON   2:14:07.55  37 TEAM DEVO
27ZEPHANIE BLASI   2:14:56.36  43 RENO WHEEL
28MANDI RIDDLE   2:15:55.97  53 BON JOVI/
29SUSAN JUEDES   2:16:45.19  33 TEAM BIKE
30SUSAN SCHUBEL   2:17:12.18  54 GIANT/DARK
31KRISTI LEWIS   2:18:41.93  59 SUN & SKI
32HEATHER SVAHN   2:20:43.10  61 THE BACKCO
33KIMBERLY FLYNN   2:21:17.02  60 DEFEET
34Becca Blay   Boulder, CO2:21:46.13 174258  38 TEAM DEAN
35Cassandra Perkins   Asheville, NC2:24:57.85 161585  40 
36JESSICA KISIEL   2:30:32.24  62 MTBCHICK.C
37JULIE EMMERMAN   2:33:18.59  42 EPIC ROOTS
DNFLISA MATLOCK   DNF  25 FORD CYCLI
DNFALICIA HAMILTON   DNF  35 GIANT/ DAR
DNFMELISSA STELTER   DNF  48 PEDAL POWE
DNFLaura Anderson   Crested Butte, CODNF 165743  51 
DNFPATTY SMITH   DNF  52 JUST FRESH

Women - EX - Junior - 1-18

 Place NameCity, StateTime USAC #BibTeam
1Hilary Wright   Park City, UT2:32:43.12 162477  947 BALANCE BA
2Chenoah Hendershot   Mears, MI2:36:18.36 174025  662 CANNONDALE
3Stephanie Schlaack   Mckinney, TX2:50:51.62 169043  605 BICYCLE HE
4Kristina Henne   Park City, UT2:57:24.85 163331  760 MTBCHICK.C
5Ketura Hendershot   Mears, MI3:09:57.81 174026  663 CANNONDALE
6Antonia Musto   Ada, MI3:54:27.66 213753  713 YOUTHCYCLI
DNFNicole Himich   Old Bridge, NJDNF 177699  884 DAD AND GR

Women - EX - Senior - 19-24

 Place NameCity, StateTime USAC #BibTeam
1CHRISTINA BUERKLE   2:20:23.73  1126 GARY FISHE
2ABIGAIL JOHNSON   2:23:45.05  1137 MATT MACHI
3Laura Bowles   Asheville, NC2:37:37.83 199307  754 DIET CHURW
4Onawa Pelham   Durango, CO2:43:16.92 207459  1058 WINDHAM MT
5Kate Riedell   Oakland, CA3:01:34.58 188596  582 HAYES ZOO
6Kathleen Weber   Austin, TX3:10:28.87 144579  905 TEAM ORTHO
7Bess Arendall   Redwood City, CA3:11:13.78 204207  650 ABERDEEN R

Women - EX - Senior - 25-29

 Place NameCity, StateTime USAC #BibTeam
1Paula Burks   Chattanooga, TN2:46:01.70 5542  832 
2Hope Proctor   Frankfort, KY2:49:13.42 184212  1027 PEDAL POWE
3Jessica Nelson   Longmont, CO3:07:25.63 199823  938 MTBCHICK.C
DNFDanielle Musto   Grand Rapids, MIDNF 213525  753 SLINGSHOT

Women - EX - Master - 30-34

 Place NameCity, StateTime USAC #BibTeam
1Mary Lynn Wikar   Vernon, CT2:31:59.47 150092  428 BERLIN BIK
2Kerri Moore   Bloomfield, CT2:52:51.16 159698  441 BERLIN BIK
3Kirstin Nickerson   Silver Spring, MD3:02:57.81 208864  992 BIKE DOCTO
4Sara Welp   Lilburn, GA3:54:28.27 164468  589 TITUS

Women - EX - Master - 35-39

 Place NameCity, StateTime USAC #BibTeam
1Sami Fournier   Bend, OR2:35:10.10 152592  1138 VELO BELLA
2Kathleen Shaw   East Hartland, CT3:00:16.52 109094  571 BENIDORM/C
DNFRebecca Leeb   Atlanta, GADNF 177072  704 SOURCEBURN

Women - EX - Master - 45-49

 Place NameCity, StateTime USAC #BibTeam
1Ellen White   Hohokus, NJ1:14:09.69 97355  449 
2Cynthia Koerber   Asheville, NC1:25:15.06 79652  620 

Women - EX - Master - 50-54

 Place NameCity, StateTime USAC #BibTeam
1Lydia Barter   N Brookfield, MA1:18:39.52 2763  568 TEAM BICYC
2Ann Beckenhauer   Springfield, VA1:38:17.37 126415  1005 

Women - SP - Junior - 1-18

 Place NameCity, StateTime USAC #BibTeam
1Jessica Thomas   Lilburn, GA3:05:18.39 196708  526 BIKETOWN U

Women - SP - Senior - 19-29

 Place NameCity, StateTime USAC #BibTeam
1April Hayes   Longmont, CO2:24:08.44 209908  1051 BIOWHEELS
2Deanna Weber   Fort Worth, TX2:32:51.28 202645  928 PEDAL MASH
3TIFFANY GREGG   2:36:49.40  996 SHIRKS
4Bevin McGahey   Asheville, NC2:51:03.54 207437  613 PRESTIGE S
DNFANNA KELSO   DNF  702 

Women - SP - Master - 30-39

 Place NameCity, StateTime USAC #BibTeam
1Trish Albert   Smyrna, GA2:38:49.90 140671  564 BONESHAKER
2Jennifer Taylor   Durham, NC2:48:54.20 206424  534 
3Jo Herald   Georgetown, IN3:09:12.25 202129  701 MTBCHICK.C
4KRISTIN ANDRS   3:19:09.56  1002 CYCOR/CONT
DNFHEATHER STEPHENSON   DNF  1011 

Women - SP - Master - 40-99

 Place NameCity, StateTime USAC #BibTeam
1ANNE HESS   2:24:43.52  998 SHIRKS
2Suzanne Henne   Plainview, AR2:55:21.14 194490  1024 PARKWIRE S
3CELESTE HALE   3:08:58.46  994 CONTES

Women - BG - Senior - 19-29

 Place NameCity, StateTime USAC #BibTeam
1Maureen Kunz   Oakland, CA1:13:47.32 206973  988 LOUISEVILL
2KIT MCKEOWN   1:24:46.97  1124 
DNFASHA DICHARRY   DNF  1010 

Women - BG - Master - 30-39

 Place NameCity, StateTime USAC #BibTeam
1JANET TRUBEY   1:31:34.39  1121 ASHEVILLE
2SUE HASTEN   1:39:37.99  982 
DNFTRACCIE HILLION   DNF  1021 

Women - BG - Master - 40-99

 Place NameCity, StateTime USAC #BibTeam
1KAREN MOODY   1:33:31.37  491 

Report missing or incorrect license numbers

Volkswagen
USACDFShimanoBonk BreakerSierra NevadaSpy
UCI USA Cycling is the official governing body for all disciplines of competitive cycling in the United States. The 501c3, membership-based organization aims both to achieve sustained success in international cycling competition and to grow competitive cycling in America while delivering an exceptional customer experience.
View Children's Online Privacy Protection Policy
US Olympic Committee